User: anonymous   Login
Location: Vancouver
(49.2500°N, 123.1330°W)
Time: 22:26:14
(UTC-08:00)
Language:

S-56A Canister/Altair - Orbit

View from above orbital plane
View from above orbital plane
View from above satellite
View from above satellite

Ground track
Ground track

The orbit data is extracted from the following two-line orbital elements,

1 00082U 61004B   14327.02002985  .00000018  00000-0  57042-4 0  7386
2 00082 038.8528 164.5534 1175536 353.0949 005.4726 12.25658356558268
Epoch (UTC): 23 November 2014 00:28:50
Eccentricity: 0.1175536
inclination: 38.8528°
perigee height: 634 km
apogee height: 2502 km
right ascension of ascending node: 164.5534°
argument of perigee: 353.0949°
revolutions per day: 12.25658356
mean anomaly at epoch: 5.4726°
orbit number at epoch: 55826

The dashed part of the orbit path shows where the satellite is in the earth's shadow,  

DLR